EW5790 Weather Reports


time (UTC)temp
C
wind
direction
speed
KPH
gust
KPH
rain 1hr
cm
rain 24hr
cm
rain mn
cm
humidity
%
barometer
mb
20260505124527 16 145 0.0 0.0 0.00 0.00 0.00 56 1011.8
20260505123022 15 223 0.0 0.0 0.00 0.00 0.00 39 1011.8
20260505121530 13 223 0.0 0.0 0.00 0.00 0.00 27 1011.5
20260505120013 12 223 0.0 0.0 0.00 0.00 0.00 10 1011.5
20260505114509 11 242 0.0 0.0 0.00 0.00 0.00 1 1011.4
20260505113004 10 242 0.0 0.0 0.00 0.00 0.00 1 1011.1
20260505111600 10 242 0.0 0.0 0.00 0.00 0.00 1 1011.1
20260505110107 10 242 0.0 0.0 0.00 0.00 0.00 1 1011.2
20260505101550 10 242 0.0 0.0 0.00 0.00 0.00 21 1010.6
20260505100042 11 242 0.0 0.0 0.00 0.00 0.00 26 1010.6
20260505094539 11 242 0.0 0.0 0.00 0.00 0.00 31 1010.4
20260505093036 12 180 0.0 0.0 0.00 0.00 0.00 41 1010.4
20260505091536 12 149 0.0 0.0 0.00 0.00 0.00 43 1010.3
20260505090041 12 149 0.0 0.0 0.00 0.00 0.00 43 1010.3
20260505084534 12 107 0.0 0.0 0.00 0.00 0.00 48 1010.4
20260505083026 13 107 0.0 0.0 0.00 0.00 0.00 54 1010.3
20260505081522 13 107 0.0 0.0 0.00 0.00 0.00 61 1010.5
20260505080037 14 107 0.0 0.0 0.00 0.00 0.00 62 1010.1
20260505074525 13 107 0.0 0.0 0.00 0.00 0.00 63 1010.0
20260505073028 13 134 0.0 0.0 0.00 0.00 0.00 62 1009.9
20260505071519 14 134 0.0 0.0 0.00 0.00 0.00 65 1010.0
20260505070016 14 134 0.0 0.0 0.00 0.00 0.00 64 1010.1
20260505064513 15 80 0.0 0.0 0.00 0.00 0.00 65 1010.1
20260505063011 15 228 0.0 0.0 0.00 0.00 0.00 68 1010.3
20260505061506 16 228 0.0 0.0 0.00 0.00 0.00 69 1010.3
20260505060003 17 228 0.0 0.0 0.00 0.00 0.00 66 1010.4
20260505054559 18 238 0.0 0.0 0.00 0.00 0.00 61 1010.5
20260505053056 18 182 0.0 0.0 0.00 0.00 0.00 60 1010.5
20260505051552 18 281 0.0 0.0 0.00 0.00 0.00 59 1010.4
20260505041548 20 181 0.0 0.0 0.00 0.00 0.00 57 1009.9
20260505040042 20 230 0.0 0.0 0.00 0.00 0.00 57 1009.8
20260505034538 20 190 0.0 0.0 0.00 0.00 0.00 56 1009.7
20260505033038 20 189 0.0 0.0 0.00 0.00 0.00 57 1009.4
20260505031530 20 38 0.0 0.0 0.00 0.00 0.00 56 1009.4
20260505030024 20 175 0.0 0.0 0.00 0.00 0.00 58 1009.4
20260505024524 20 181 0.0 0.0 0.00 0.00 0.00 58 1009.0
20260505023015 20 136 0.0 0.0 0.00 0.00 0.00 58 1009.0
20260505021513 20 164 0.0 0.0 0.00 0.00 0.00 59 1008.9
20260505020014 19 177 0.0 0.0 0.00 0.00 0.00 60 1008.8
20260505014508 18 129 0.0 0.0 0.00 0.00 0.00 62 1008.8
20260505013003 18 190 0.0 0.0 0.00 0.00 0.00 64 1009.0
20260505011600 19 190 0.0 0.0 0.00 0.00 0.00 62 1009.0
20260505010056 20 190 0.0 0.0 0.00 0.00 0.00 58 1008.9
20260505004555 21 190 0.0 0.0 0.00 0.00 0.00 54 1009.0
20260505003045 22 190 0.0 0.0 0.00 0.00 0.00 49 1009.0
20260505001545 23 157 0.0 0.0 0.00 0.00 0.00 47 1009.0
20260505000036 23 171 0.0 0.0 0.00 0.00 0.00 45 1009.0
20260504234532 24 178 0.0 0.0 0.00 0.00 0.00 45 1009.0
20260504233028 24 205 0.0 0.0 0.00 0.00 0.00 43 1009.3
20260504231522 24 232 0.0 0.0 0.00 0.00 0.00 44 1009.3
20260504230018 24 239 0.0 0.0 0.00 0.00 0.00 42 1009.4
20260504224514 25 267 0.0 0.0 0.00 0.00 0.00 40 1009.6
20260504223010 25 269 0.0 0.0 0.00 0.00 0.00 45 1009.4
20260504221504 25 286 0.0 0.0 0.00 0.00 0.00 45 1009.4
20260504220107 25 188 0.0 0.0 0.00 0.00 0.00 44 1009.5
20260504214605 25 136 0.0 0.0 0.00 0.00 0.00 46 1009.5
20260504213055 25 34 0.0 0.0 0.00 0.00 0.00 43 1009.6
20260504211547 25 294 0.0 0.0 0.00 0.00 0.00 40 1009.4
20260504210055 26 284 0.0 0.0 0.00 0.00 0.00 41 1009.4
20260504204552 26 126 0.0 0.0 0.00 0.00 0.00 44 1009.5
20260504203035 25 269 0.0 0.0 0.00 0.00 0.00 45 1009.8
20260504201528 26 271 0.0 0.0 0.00 0.00 0.00 43 1010.0
20260504200025 26 276 0.0 0.0 0.00 0.00 0.00 42 1010.2
20260504194521 26 24 0.0 0.0 0.00 0.00 0.00 48 1010.6
20260504193016 26 241 0.0 0.0 0.00 0.00 0.00 45 1010.8
20260504191511 26 216 0.0 0.0 0.00 0.00 0.00 45 1010.8
20260504190006 25 289 0.0 0.0 0.00 0.00 0.00 48 1011.2
20260504184502 25 135 0.0 0.0 0.00 0.00 0.00 46 1011.2
20260504183104 25 146 0.0 0.0 0.00 0.00 0.00 48 1011.4
20260504181553 25 278 0.0 0.0 0.00 0.00 0.00 50 1011.7
20260504180058 24 196 0.0 0.0 0.00 0.00 0.00 54 1011.7
20260504174546 23 302 0.0 0.0 0.00 0.00 0.00 48 1012.0
20260504173041 23 283 0.0 0.0 0.00 0.00 0.00 53 1012.0
20260504171537 23 5 0.0 0.0 0.00 0.00 0.00 53 1012.3